FW2738 Weather Reports


Display with metric or nautical units.
time (UTC)temp
F
wind
direction
speed
MPH
gust
MPH
rain 1hr
in
rain 24hr
in
rain mn
in
humidity
%
barometer
mb
20260506043040 58 360 8.0 17.0 0.00 0.00 0.00 80 1008.1
20260506041536 58 11 16.0 21.0 0.00 0.00 0.00 79 1008.0
20260506040033 58 321 13.0 19.0 0.00 0.00 0.00 80 1007.7
20260506034529 59 338 12.0 15.0 0.00 0.00 0.00 81 1007.8
20260506033027 59 20 10.0 17.0 0.00 0.00 0.00 81 1007.5
20260506031526 60 355 13.0 20.0 0.00 0.00 0.00 80 1007.2
20260506030029 60 5 14.0 20.0 0.00 0.00 0.00 80 1007.1
20260506024534 61 355 12.0 19.0 0.00 0.00 0.00 80 1006.5
20260506023014 63 19 9.0 18.0 0.00 0.00 0.00 79 1005.9
20260506021510 65 341 10.0 16.0 0.00 0.00 0.00 78 1005.8
20260506020007 67 22 9.0 13.0 0.00 0.00 0.00 78 1005.2
20260506014504 67 339 10.0 17.0 0.00 0.00 0.00 77 1005.2
20260506013101 68 349 9.0 17.0 0.00 0.00 0.00 76 1004.9
20260506011557 69 347 11.0 15.0 0.00 0.00 0.00 76 1004.2
20260506010055 70 341 9.0 14.0 0.00 0.00 0.00 76 1004.3
20260506004555 71 332 8.0 15.0 0.00 0.00 0.00 75 1004.3
20260506003053 73 325 10.0 13.0 0.00 0.00 0.00 73 1004.1
20260506001556 74 305 11.0 16.0 0.00 0.00 0.00 70 1003.6
20260506000053 76 331 10.0 15.0 0.00 0.00 0.00 70 1003.8
20260505234554 77 309 10.0 15.0 0.00 0.00 0.00 65 1003.2
20260505233050 79 317 14.0 18.0 0.00 0.00 0.00 60 1003.4
20260505231600 81 311 7.0 13.0 0.00 0.00 0.00 56 1002.8
20260505230057 81 317 8.0 16.0 0.00 0.00 0.00 54 1002.4
20260505224552 85 290 9.0 14.0 0.00 0.00 0.00 59 1002.5
20260505223048 87 194 6.0 10.0 0.00 0.00 0.00 59 1001.9
20260505221548 87 180 6.0 10.0 0.00 0.00 0.00 55 1001.7
20260505220047 86 264 6.0 14.0 0.00 0.00 0.00 55 1001.7
20260505214545 86 176 6.0 14.0 0.00 0.00 0.00 59 1002.1
20260505213052 86 225 11.0 17.0 0.00 0.00 0.00 60 1002.1
20260505211544 86 172 5.0 16.0 0.00 0.00 0.00 63 1002.2
20260505210039 85 188 10.0 14.0 0.00 0.00 0.00 65 1002.3
20260505204539 85 164 8.0 17.0 0.00 0.00 0.00 66 1002.3
20260505203036 84 202 11.0 17.0 0.00 0.00 0.00 68 1002.7
20260505201538 83 199 10.0 20.0 0.00 0.00 0.00 68 1002.8
20260505200036 83 161 10.0 24.0 0.00 0.00 0.00 67 1002.8
20260505194534 83 199 11.0 22.0 0.00 0.00 0.00 68 1003.0
20260505193033 84 165 14.0 21.0 0.00 0.00 0.00 66 1002.9
20260505191533 83 186 10.0 21.0 0.00 0.00 0.00 69 1002.6
20260505190029 81 202 13.0 21.0 0.00 0.00 0.00 68 1002.8
20260505184528 81 171 12.0 21.0 0.00 0.00 0.00 68 1002.9
20260505183034 81 209 14.0 24.0 0.00 0.00 0.00 68 1003.0
20260505181526 81 194 14.0 26.0 0.00 0.00 0.00 69 1003.2
20260505180042 82 217 12.0 25.0 0.00 0.00 0.00 69 1002.8
20260505174522 80 217 13.0 27.0 0.00 0.00 0.00 72 1002.9
20260505173019 79 171 16.0 25.0 0.00 0.00 0.00 74 1002.8
20260505171515 77 167 12.0 22.0 0.00 0.00 0.00 77 1003.4
20260505170015 76 168 11.0 21.0 0.00 0.00 0.00 78 1002.8
20260505164514 76 200 13.0 24.0 0.00 0.00 0.00 78 1002.7
20260505163013 76 190 19.0 29.0 0.00 0.00 0.00 77 1003.6
20260505161513 77 200 17.0 27.0 0.00 0.00 0.00 77 1002.9
20260505153010 75 189 14.0 27.0 0.00 0.00 0.00 80 1003.0
20260505151503 74 172 17.0 25.0 0.00 0.00 0.00 80 1003.0
20260505124551 70 173 11.0 25.0 0.00 0.00 0.00 85 1002.6
20260505123053 70 192 14.0 22.0 0.00 0.00 0.00 86 1002.5
20260505121549 70 173 14.0 21.0 0.00 0.00 0.00 85 1002.5
20260505120051 70 175 13.0 22.0 0.00 0.00 0.00 85 1002.4
20260505114550 70 180 14.0 23.0 0.00 0.00 0.00 85 1002.3
20260505113051 70 180 14.0 20.0 0.00 0.00 0.00 85 1002.3
20260505111545 70 198 13.0 22.0 0.00 0.00 0.00 84 1002.2
20260505101559 70 157 13.0 24.0 0.00 0.00 0.00 85 1002.2
20260505100057 70 198 13.0 22.0 0.00 0.00 0.00 85 1002.3
20260505094539 70 210 16.0 23.0 0.00 0.00 0.00 85 1002.3
20260505093038 70 198 16.0 25.0 0.00 0.00 0.00 85 1002.6
20260505091536 70 185 15.0 27.0 0.00 0.00 0.00 85 1002.6
20260505090035 69 174 13.0 24.0 0.00 0.00 0.00 85 1002.6
20260505084535 69 171 13.0 26.0 0.00 0.00 0.00 85 1002.7
20260505083032 70 159 16.0 23.0 0.00 0.00 0.00 84 1002.6
20260505081530 70 197 15.0 25.0 0.00 0.00 0.00 83 1002.8
20260505080032 70 184 16.0 29.0 0.00 0.00 0.00 83 1003.0
20260505074525 70 211 15.0 30.0 0.00 0.00 0.00 82 1003.2
20260505073033 70 166 16.0 27.0 0.00 0.00 0.00 81 1003.3
20260505071520 71 201 13.0 28.0 0.00 0.00 0.00 81 1003.5
20260505070018 71 220 16.0 29.0 0.00 0.00 0.00 80 1003.8
20260505064519 71 179 10.0 25.0 0.00 0.00 0.00 79 1003.7
20260505063015 71 185 15.0 27.0 0.00 0.00 0.00 79 1004.0
20260505061521 71 174 14.0 24.0 0.00 0.00 0.00 78 1003.9
20260505060011 71 159 15.0 22.0 0.00 0.00 0.00 77 1004.0
20260505054510 71 162 14.0 27.0 0.00 0.00 0.00 77 1004.2
20260505053019 71 184 13.0 21.0 0.00 0.00 0.00 76 1004.3
20260505051517 71 148 14.0 22.0 0.00 0.00 0.00 75 1004.4